Location: Ch�ze
(42.9000°N, 0.0333°W)
Time: 00:09:19
(UTC+00:00)

Cosmos 2278 Rocket - Pass Details

Date: 24 January 2021
Orbit: 839 x 847 km, 71.0° (Epoch: 24 February)

Event Time Altitude Azimuth Distance (km) Brightness Sun altitude
Rises 20:46:22 0° 247° (WSW) 3,395 6.0 -40.7°
Reaches altitude 10° 20:49:27 10° 263° (W) 2,465 5.2 -41.3°
Enters shadow 20:52:33 20° 296° (WNW) 1,885 4.5 -41.8°
